This demonstration page uses our WeatherBlox Daily Observations layout. Learn more.

Left ArrowRight Arrow

Hourly Observations for September 2, 2021

Temp ( °F °C ) Dew Point ( °F °C ) Humidity (%) Winds ( mph kmh ) Pressure ( in mb ) Visibility ( mi km ) Precip ( " mm )
12:54 am 00:54 Clear 72 22.2 63 17.2 73 73 SE 14 22 29.91 1013 10 16 N/A
1:54 am 01:54 Clear 71 21.7 63 17.2 76 76 SE 13 20 29.92 1013 10 16 N/A
2:54 am 02:54 Clear 70 21.1 63 17.2 79 79 SE 9 15 29.91 1013 10 16 N/A
3:54 am 03:54 Clear 70 21.1 63 17.2 79 79 SE 10 17 29.91 1013 10 16 N/A
4:54 am 04:54 Clear 70 21.1 62 16.7 76 76 SE 12 19 29.91 1013 10 16 N/A
5:54 am 05:54 Clear 70 21.1 62 16.7 76 76 SE 12 19 29.92 1013 10 16 N/A
6:54 am 06:54 Clear 69 20.6 62 16.7 78 78 SE 14 22 29.92 1013 10 16 N/A
7:54 am 07:54 Mostly Cloudy 70 21.1 62 16.7 76 76 SSE 16 26 29.91 1013 10 16 N/A
8:54 am 08:54 Partly Cloudy 71 21.7 63 17.2 76 76 SSE 16 26 29.90 1013 10 16 N/A
9:54 am 09:54 Mostly Cloudy 71 21.7 63 17.2 76 76 SSE 14 22 29.92 1013 10 16 N/A
10:54 am 10:54 Sunny 74 23.3 64 17.8 71 71 SSE 14 22 29.91 1013 10 16 N/A
11:54 am 11:54 Sunny 74 23.3 65 18.3 74 74 SSE 15 24 29.90 1012 10 16 N/A
12:54 pm 12:54 Partly Cloudy 75 23.9 66 18.9 74 74 SSE 12 19 29.90 1013 10 16 N/A
1:54 pm 13:54 Partly Cloudy 74 23.3 66 18.9 76 76 SSE 16 26 29.88 1012 10 16 N/A
2:54 pm 14:54 Cloudy with Light Rain 74 23.3 68 20 82 82 SSE 7 11 29.90 1013 10 16 0.01 0.25
3:54 pm 15:54 Mostly Cloudy with Rain 74 23.3 70 21.1 88 88 SSE 6 9 29.89 1012 4 6 0.02 0.51
4:17 pm 16:17 Cloudy with Light Rain 73 22.8 69 20.6 87 87 E 15 24 29.82 1010 9 14 0.04 1.02
4:54 pm 16:54 Mostly Cloudy 74 23.3 70 21.1 88 88 SSE 13 20 29.85 1011 10 16 0.04 1.02
5:23 pm 17:23 Cloudy 75 23.9 70 21.1 84 84 SE 15 24 29.82 1010 10 16 0.00 0.00
5:54 pm 17:54 Cloudy 75 23.9 69 20.6 82 82 SE 15 24 29.83 1010 10 16 0.00 0.00
6:54 pm 18:54 Cloudy 75 23.9 69 20.6 82 82 SE 14 22 29.83 1010 10 16 N/A
7:54 pm 19:54 Mostly Cloudy 74 23.3 69 20.6 85 85 SE 8 13 29.82 1010 10 16 0.00 0.00
8:54 pm 20:54 Partly Cloudy 74 23.3 69 20.6 85 85 SSE 12 19 29.83 1010 10 16 N/A
9:54 pm 21:54 Mostly Cloudy 74 23.3 69 20.6 85 85 S 14 22 29.83 1010 10 16 N/A
10:22 pm 22:22 Cloudy with Nearby Thunderstorms 74 23.3 69 20.6 85 85 S 13 20 29.81 1010 10 16 N/A
10:44 pm 22:44 Cloudy with Heavy Rain 73 22.8 70 21.1 90 90 S 10 17 29.82 1010 4 6 0.02 0.51
10:54 pm 22:54 Cloudy with Light Rain 73 22.8 70 21.1 90 90 SW 8 13 29.85 1011 6 10 0.05 1.27
11:03 pm 23:03 Cloudy with Light Rain 73 22.8 70 21.1 90 90 W 6 9 29.85 1011 6 10 0.01 0.25
11:25 pm 23:25 Cloudy with Nearby Thunderstorms 73 22.8 71 21.7 94 94 W 8 13 29.86 1011 4 6 0.03 0.76
11:50 pm 23:50 Cloudy with Thunderstorms 73 23 72 22 94 94 SSW 9 15 29.84 1011 4 6 0.07 1.78
11:54 pm 23:54 Mostly Cloudy with Thunderstorms 73 22.8 71 21.7 94 94 S 9 15 29.84 1011 5 8 0.08 2.03
11:56 pm 23:56 Mostly Cloudy with Thunderstorms 73 22.8 71 21.7 94 94 S 9 15 29.83 1010 5 8 0.00 0.00

Powered by AerisWeather